Airfield :
LOGIN :

Register | Disclaimer

   EN    FR    IT 

 










Legend :    VFR   Marginal VFR   IFR   Intensive IFR   Very Intensive IFR
Visi :
Ceiling :
>= 8 km
>= 3000ft
5 to 8 km
1000 to 3000 ft
1500m to 5 km
500 to 1000 ft
800 to 1500m
200 to 500 ft
< 800m
< 200 ft
Symbols :   Thunderstorms  Fog  Heavy snow  Heavy precipitations  Wind > 20 kt
SIGMETs :     Misc.  Thunderstorms  Icing  Turbulence  Mountain Waves  Volcanic Ashes







- Airport Elevation : 20 ft
- IATA code : BJA


DAAE - Soummam - Bejaia

CURRENT METAR :
  • 190800Z 25004KT 9999 SCT020 BKN090 24/15 Q1019

EXPIRED METARs :
  • 190700Z 25008KT 9999 SCT020 BKN090 21/15 Q1019
  • 190600Z 25004KT CAVOK 19/13 Q1019
  • 190500Z 23004KT CAVOK 18/14 Q1019

TAF TAF DAAE
Valid from the 19 at 06:00 until the 20 at 06:00 UTC


190500Z 1906/2006 22008KT 9999 FEW026
PROB30
TEMPO 1906/1914 FEW023TCU
BECMG 1909/1912 31011KT
BECMG 1919/1921 VRB02KT
No reported NOTAMs for that airfield.



MET'MAP, your aeronautical weather chart ! - Copyright ORBIFLY December 2007 - Disclaimer

ORBIFLY MET'MAP TEAM :

Programming & Development : Alexandra Zaïnal
Concept & Development : Baudouin d'Aumeries
Co-Development & Prog : Marc-Olivier Méhu
Technical & hardware support : Manuel Goepfert

Contact : metmap@orbifly.com




SOURCES & CREDITS :

   NOAA